Location: Rounton
(54.4000°N, 1.3500°W)
Time: 23:30:39
(UTC+01:00)

Vanguard 1 - Pass Details

Date: 02 March 2024
Orbit: 653 x 3825 km, 34.2° (Epoch: 21 April)

Event Time Altitude Azimuth Distance (km) Brightness Sun altitude
Rises 16:47:48 0° 188° (S) 4,471 13.9 7.1°
Reaches altitude 10° 16:52:10 10° 167° (SSE) 4,023 13.3 6.5°
Maximum altitude 16:57:53 15° 135° (SE) 4,243 13.1 5.7°
Drops below altitude 10° 17:05:14 10° 106° (ESE) 5,453 13.4 4.7°
Sets 17:13:11 0° 89° (E) 7,144 13.8 3.6°
